| time (UTC) | temp F | wind direction | speed MPH | gust MPH | rain 1hr in | rain 24hr in | rain mn in | humidity % | barometer mb |
| 20260504043555 | 37 | 97 | 2.0 | 7.0 | 0.00 | 0.00 | 0.00 | 97 | 1000.2 |
| 20260504043058 | 38 | 86 | 2.0 | 6.0 | 0.00 | 0.00 | 0.00 | 97 | 1000.5 |
| 20260504042554 | 38 | 36 | 2.0 | 6.0 | 0.00 | 0.00 | 0.00 | 97 | 1000.6 |
| 20260504041553 | 38 | 67 | 2.0 | 8.0 | 0.00 | 0.00 | 0.00 | 97 | 1001.1 |
| 20260504041053 | 38 | 87 | 3.0 | 8.0 | 0.00 | 0.00 | 0.00 | 97 | 1001.1 |
| 20260504040552 | 38 | 62 | 3.0 | 7.0 | 0.00 | 0.00 | 0.00 | 97 | 1001.0 |
| 20260504040052 | 38 | 52 | 3.0 | 8.0 | 0.00 | 0.00 | 0.00 | 97 | 1001.0 |
| 20260504035552 | 38 | 85 | 3.0 | 9.0 | 0.00 | 0.00 | 0.00 | 97 | 1000.9 |
| 20260504035051 | 38 | 268 | 1.0 | 9.0 | 0.00 | 0.00 | 0.00 | 97 | 1001.3 |
| 20260504034550 | 38 | 181 | 2.0 | 6.0 | 0.00 | 0.00 | 0.00 | 97 | 1001.8 |
| 20260504034048 | 38 | 45 | 2.0 | 6.0 | 0.00 | 0.00 | 0.00 | 97 | 1001.8 |
| 20260504033550 | 38 | 130 | 2.0 | 7.0 | 0.00 | 0.00 | 0.00 | 97 | 1001.8 |
| 20260504033048 | 38 | 161 | 4.0 | 7.0 | 0.00 | 0.00 | 0.00 | 97 | 1001.9 |
| 20260504032546 | 38 | 131 | 3.0 | 12.0 | 0.00 | 0.00 | 0.00 | 97 | 1002.0 |
| 20260504031545 | 38 | 139 | 3.0 | 9.0 | 0.00 | 0.00 | 0.00 | 97 | 1002.3 |
| 20260504031044 | 38 | 197 | 4.0 | 11.0 | 0.00 | 0.00 | 0.00 | 97 | 1002.3 |
| 20260504030543 | 38 | 57 | 4.0 | 11.0 | 0.00 | 0.00 | 0.00 | 97 | 1002.2 |
| 20260504030042 | 38 | 81 | 3.0 | 7.0 | 0.00 | 0.00 | 0.00 | 97 | 1002.3 |
| 20260504025542 | 38 | 115 | 2.0 | 7.0 | 0.00 | 0.00 | 0.00 | 97 | 1002.4 |
| 20260504025041 | 38 | 150 | 2.0 | 8.0 | 0.00 | 0.00 | 0.00 | 97 | 1002.5 |
| 20260504024544 | 38 | 74 | 3.0 | 8.0 | 0.00 | 0.00 | 0.00 | 97 | 1002.4 |
| 20260504024042 | 38 | 95 | 2.0 | 8.0 | 0.00 | 0.00 | 0.00 | 97 | 1002.3 |
| 20260504023538 | 38 | 60 | 2.0 | 7.0 | 0.00 | 0.00 | 0.00 | 97 | 1002.4 |
| 20260504023038 | 38 | 158 | 3.0 | 7.0 | 0.00 | 0.00 | 0.00 | 97 | 1002.5 |
| 20260504022537 | 38 | 60 | 2.0 | 6.0 | 0.00 | 0.00 | 0.00 | 97 | 1002.5 |
| 20260504021536 | 38 | 60 | 2.0 | 6.0 | 0.00 | 0.00 | 0.00 | 97 | 1002.7 |
| 20260504021041 | 38 | 51 | 2.0 | 7.0 | 0.00 | 0.00 | 0.00 | 97 | 1002.8 |
| 20260504020534 | 38 | 68 | 3.0 | 7.0 | 0.00 | 0.00 | 0.00 | 97 | 1003.0 |
| 20260504020044 | 38 | 84 | 0.0 | 6.0 | 0.00 | 0.00 | 0.00 | 97 | 1003.1 |
| 20260504015533 | 38 | 134 | 3.0 | 7.0 | 0.00 | 0.00 | 0.00 | 97 | 1003.5 |
| 20260504015031 | 38 | 111 | 1.0 | 8.0 | 0.00 | 0.00 | 0.00 | 97 | 1003.8 |
| 20260504014539 | 39 | 86 | 2.0 | 8.0 | 0.00 | 0.00 | 0.00 | 97 | 1003.9 |
| 20260504014030 | 39 | 67 | 0.0 | 7.0 | 0.00 | 0.00 | 0.00 | 97 | 1004.1 |
| 20260504013529 | 39 | 97 | 3.0 | 8.0 | 0.00 | 0.00 | 0.00 | 97 | 1004.3 |
| 20260504013036 | 39 | 122 | 2.0 | 8.0 | 0.00 | 0.00 | 0.00 | 97 | 1004.3 |
| 20260504012528 | 40 | 75 | 1.0 | 7.0 | 0.00 | 0.00 | 0.00 | 97 | 1004.4 |
| 20260504011527 | 40 | 64 | 2.0 | 7.0 | 0.00 | 0.00 | 0.00 | 97 | 1004.6 |
| 20260504011026 | 40 | 152 | 2.0 | 6.0 | 0.00 | 0.00 | 0.00 | 97 | 1004.6 |
| 20260504010525 | 41 | 101 | 2.0 | 7.0 | 0.00 | 0.00 | 0.00 | 97 | 1004.7 |
| 20260504010024 | 41 | 84 | 3.0 | 7.0 | 0.00 | 0.00 | 0.00 | 97 | 1004.9 |
| 20260504005524 | 41 | 69 | 2.0 | 7.0 | 0.00 | 0.00 | 0.00 | 97 | 1005.0 |
| 20260504005024 | 41 | 54 | 2.0 | 5.0 | 0.00 | 0.00 | 0.00 | 97 | 1005.1 |
| 20260504004531 | 41 | 83 | 0.0 | 6.0 | 0.00 | 0.00 | 0.00 | 97 | 1005.1 |
| 20260504004025 | 41 | 105 | 1.0 | 6.0 | 0.00 | 0.00 | 0.00 | 97 | 1005.2 |
| 20260504003523 | 41 | 40 | 2.0 | 5.0 | 0.00 | 0.00 | 0.00 | 97 | 1005.1 |
| 20260504003023 | 41 | 87 | 1.0 | 4.0 | 0.00 | 0.00 | 0.00 | 97 | 1005.2 |
| 20260504002522 | 40 | 132 | 1.0 | 6.0 | 0.00 | 0.00 | 0.00 | 97 | 1005.1 |
| 20260504001524 | 40 | 99 | 1.0 | 6.0 | 0.00 | 0.00 | 0.00 | 97 | 1005.2 |
| 20260504001021 | 40 | 147 | 1.0 | 7.0 | 0.00 | 0.00 | 0.00 | 97 | 1005.5 |
| 20260504000521 | 40 | 96 | 1.0 | 7.0 | 0.00 | 0.00 | 0.00 | 97 | 1005.7 |
| 20260504000021 | 39 | 124 | 1.0 | 5.0 | 0.00 | 0.00 | 0.00 | 97 | 1005.9 |
| 20260503235524 | 39 | 101 | 0.0 | 2.0 | 0.00 | 0.00 | 0.00 | 97 | 1005.8 |
| 20260503235020 | 39 | 335 | 0.0 | 2.0 | 0.00 | 0.00 | 0.00 | 97 | 1005.9 |
| 20260503234522 | 39 | 345 | 0.0 | 0.0 | 0.00 | 0.00 | 0.00 | 97 | 1005.9 |
| 20260503234022 | 39 | 345 | 0.0 | 2.0 | 0.00 | 0.00 | 0.00 | 97 | 1005.9 |
| 20260503233519 | 39 | 345 | 0.0 | 2.0 | 0.00 | 0.00 | 0.00 | 97 | 1006.1 |
| 20260503233021 | 39 | 12 | 0.0 | 2.0 | 0.00 | 0.00 | 0.00 | 97 | 1006.2 |
| 20260503232519 | 39 | 16 | 1.0 | 5.0 | 0.00 | 0.00 | 0.00 | 97 | 1006.1 |
| 20260503231519 | 39 | 12 | 1.0 | 7.0 | 0.00 | 0.00 | 0.00 | 97 | 1006.2 |
| 20260503231016 | 39 | 66 | 2.0 | 5.0 | 0.00 | 0.00 | 0.00 | 97 | 1006.1 |
| 20260503230518 | 39 | 126 | 1.0 | 5.0 | 0.00 | 0.00 | 0.00 | 97 | 1006.2 |
| 20260503230015 | 39 | 17 | 2.0 | 5.0 | 0.00 | 0.00 | 0.00 | 97 | 1006.3 |
| 20260503225514 | 39 | 41 | 1.0 | 6.0 | 0.00 | 0.00 | 0.00 | 97 | 1006.4 |
| 20260503225014 | 39 | 72 | 2.0 | 6.0 | 0.00 | 0.00 | 0.00 | 97 | 1006.4 |
| 20260503224514 | 40 | 44 | 2.0 | 6.0 | 0.00 | 0.00 | 0.00 | 97 | 1006.3 |
| 20260503224013 | 39 | 6 | 1.0 | 5.0 | 0.00 | 0.00 | 0.00 | 97 | 1006.4 |
| 20260503223512 | 39 | 26 | 2.0 | 6.0 | 0.00 | 0.00 | 0.00 | 97 | 1006.6 |
| 20260503223012 | 39 | 54 | 3.0 | 6.0 | 0.00 | 0.00 | 0.00 | 97 | 1006.7 |
| 20260503222510 | 39 | 82 | 2.0 | 7.0 | 0.00 | 0.00 | 0.00 | 97 | 1006.8 |
| 20260503221513 | 39 | 74 | 5.0 | 7.0 | 0.00 | 0.00 | 0.00 | 97 | 1006.9 |
| 20260503221016 | 39 | 66 | 4.0 | 7.0 | 0.00 | 0.00 | 0.00 | 97 | 1006.8 |
| 20260503220514 | 39 | 74 | 2.0 | 6.0 | 0.00 | 0.00 | 0.00 | 97 | 1006.9 |
| 20260503220011 | 39 | 72 | 3.0 | 6.0 | 0.00 | 0.00 | 0.00 | 97 | 1006.8 |
| 20260503215510 | 39 | 64 | 4.0 | 6.0 | 0.00 | 0.00 | 0.00 | 97 | 1006.8 |
| 20260503215010 | 39 | 56 | 2.0 | 7.0 | 0.00 | 0.00 | 0.00 | 97 | 1006.9 |
| 20260503214509 | 40 | 51 | 4.0 | 7.0 | 0.00 | 0.00 | 0.00 | 97 | 1006.8 |
| 20260503214009 | 40 | 66 | 4.0 | 7.0 | 0.00 | 0.00 | 0.00 | 97 | 1006.9 |
| 20260503213509 | 40 | 72 | 3.0 | 6.0 | 0.00 | 0.00 | 0.00 | 97 | 1006.9 |
| 20260503213009 | 40 | 58 | 3.0 | 7.0 | 0.00 | 0.00 | 0.00 | 97 | 1007.2 |
| 20260503212507 | 40 | 68 | 3.0 | 9.0 | 0.00 | 0.00 | 0.00 | 97 | 1007.3 |
| 20260503211505 | 41 | 38 | 2.0 | 5.0 | 0.00 | 0.00 | 0.00 | 97 | 1007.7 |
| 20260503211005 | 41 | 52 | 1.0 | 4.0 | 0.00 | 0.00 | 0.00 | 97 | 1007.8 |
| 20260503210506 | 41 | 52 | 1.0 | 3.0 | 0.00 | 0.00 | 0.00 | 97 | 1007.8 |
| 20260503210005 | 41 | 61 | 0.0 | 6.0 | 0.00 | 0.00 | 0.00 | 97 | 1007.8 |
| 20260503205505 | 41 | 58 | 3.0 | 6.0 | 0.00 | 0.00 | 0.00 | 97 | 1007.6 |
| 20260503205004 | 41 | 72 | 2.0 | 6.0 | 0.00 | 0.00 | 0.00 | 97 | 1007.7 |
| 20260503204504 | 41 | 70 | 1.0 | 6.0 | 0.00 | 0.00 | 0.00 | 97 | 1007.9 |
| 20260503204004 | 41 | 68 | 1.0 | 6.0 | 0.00 | 0.00 | 0.00 | 97 | 1007.8 |
| 20260503203502 | 41 | 60 | 1.0 | 6.0 | 0.00 | 0.00 | 0.00 | 97 | 1007.8 |
| 20260503203003 | 41 | 76 | 4.0 | 6.0 | 0.00 | 0.00 | 0.00 | 97 | 1007.9 |
| 20260503202501 | 41 | 62 | 3.0 | 6.0 | 0.00 | 0.00 | 0.00 | 97 | 1008.1 |
| 20260503201502 | 41 | 69 | 3.0 | 6.0 | 0.00 | 0.00 | 0.00 | 97 | 1008.2 |
| 20260503201006 | 42 | 69 | 2.0 | 5.0 | 0.00 | 0.00 | 0.00 | 97 | 1008.2 |
| 20260503200502 | 41 | 70 | 2.0 | 5.0 | 0.00 | 0.00 | 0.00 | 97 | 1008.2 |
| 20260503200001 | 41 | 70 | 3.0 | 5.0 | 0.00 | 0.00 | 0.00 | 97 | 1008.1 |
| 20260503195600 | 41 | 70 | 3.0 | 5.0 | 0.00 | 0.00 | 0.00 | 97 | 1008.1 |
| 20260503195102 | 41 | 68 | 2.0 | 5.0 | 0.00 | 0.00 | 0.00 | 97 | 1008.2 |
| 20260503194600 | 41 | 60 | 1.0 | 6.0 | 0.00 | 0.00 | 0.00 | 97 | 1008.2 |
| 20260503194059 | 41 | 68 | 1.0 | 6.0 | 0.00 | 0.00 | 0.00 | 97 | 1008.3 |
| 20260503193558 | 41 | 70 | 2.0 | 5.0 | 0.00 | 0.00 | 0.00 | 97 | 1008.4 |
| 20260503193059 | 41 | 78 | 0.0 | 7.0 | 0.00 | 0.00 | 0.00 | 97 | 1008.5 |
| 20260503192602 | 41 | 64 | 3.0 | 7.0 | 0.00 | 0.00 | 0.00 | 97 | 1008.5 |
| 20260503191559 | 41 | 68 | 3.0 | 6.0 | 0.00 | 0.00 | 0.00 | 97 | 1008.6 |
| 20260503191059 | 42 | 57 | 3.0 | 7.0 | 0.00 | 0.00 | 0.00 | 97 | 1008.6 |
| 20260503190659 | 42 | 67 | 4.0 | 7.0 | 0.00 | 0.00 | 0.00 | 97 | 1008.5 |
| 20260503190109 | 42 | 70 | 4.0 | 6.0 | 0.00 | 0.00 | 0.00 | 97 | 1008.6 |
| 20260503185558 | 43 | 60 | 3.0 | 6.0 | 0.00 | 0.00 | 0.00 | 97 | 1008.5 |
| 20260503185058 | 43 | 74 | 1.0 | 7.0 | 0.00 | 0.00 | 0.00 | 97 | 1008.5 |
| 20260503184604 | 43 | 59 | 3.0 | 7.0 | 0.00 | 0.00 | 0.00 | 97 | 1008.4 |
| 20260503184100 | 43 | 75 | 2.0 | 6.0 | 0.00 | 0.00 | 0.00 | 97 | 1008.4 |
| 20260503183557 | 43 | 56 | 1.0 | 7.0 | 0.00 | 0.00 | 0.00 | 97 | 1008.6 |
| 20260503183059 | 42 | 66 | 1.0 | 8.0 | 0.00 | 0.00 | 0.00 | 97 | 1008.6 |
| 20260503182556 | 42 | 88 | 4.0 | 8.0 | 0.00 | 0.00 | 0.00 | 96 | 1008.4 |
| 20260503181601 | 43 | 51 | 5.0 | 8.0 | 0.00 | 0.00 | 0.00 | 97 | 1008.5 |
| 20260503181056 | 44 | 73 | 3.0 | 7.0 | 0.00 | 0.00 | 0.00 | 97 | 1008.5 |
| 20260503180554 | 44 | 73 | 3.0 | 8.0 | 0.00 | 0.00 | 0.00 | 97 | 1008.6 |
| 20260503180056 | 45 | 60 | 3.0 | 6.0 | 0.00 | 0.00 | 0.00 | 97 | 1008.7 |
| 20260503175552 | 45 | 75 | 2.0 | 5.0 | 0.00 | 0.00 | 0.00 | 97 | 1008.8 |
| 20260503175052 | 45 | 68 | 1.0 | 6.0 | 0.00 | 0.00 | 0.00 | 97 | 1009.1 |
| 20260503174551 | 45 | 77 | 2.0 | 6.0 | 0.00 | 0.00 | 0.00 | 97 | 1009.2 |
| 20260503174052 | 45 | 74 | 3.0 | 5.0 | 0.00 | 0.00 | 0.00 | 97 | 1009.4 |
| 20260503173552 | 45 | 68 | 2.0 | 5.0 | 0.00 | 0.00 | 0.00 | 97 | 1009.4 |
| 20260503173051 | 45 | 77 | 2.0 | 5.0 | 0.00 | 0.00 | 0.00 | 97 | 1009.6 |
| 20260503172552 | 45 | 70 | 1.0 | 5.0 | 0.00 | 0.00 | 0.00 | 97 | 1009.6 |
| 20260503171551 | 45 | 69 | 2.0 | 5.0 | 0.00 | 0.00 | 0.00 | 97 | 1009.7 |
| 20260503171052 | 46 | 67 | 1.0 | 4.0 | 0.00 | 0.00 | 0.00 | 97 | 1009.7 |
| 20260503170552 | 46 | 68 | 1.0 | 3.0 | 0.00 | 0.00 | 0.00 | 97 | 1009.6 |
| 20260503150541 | 42 | 62 | 1.0 | 6.0 | 0.00 | 0.00 | 0.00 | 97 | 1010.8 |
| 20260503131031 | 44 | 74 | 0.0 | 2.0 | 0.00 | 0.00 | 0.00 | 97 | 1011.6 |
| 20260503130531 | 43 | 74 | 0.0 | 2.0 | 0.00 | 0.00 | 0.00 | 97 | 1011.6 |
| 20260503110522 | 40 | 86 | 0.0 | 1.0 | 0.00 | 0.00 | 0.00 | 97 | 1012.0 |
| 20260503081533 | 39 | 203 | 1.0 | 2.0 | 0.00 | 0.00 | 0.00 | 97 | 1012.4 |
| 20260503081019 | 39 | 193 | 0.0 | 2.0 | 0.00 | 0.00 | 0.00 | 97 | 1012.5 |
| 20260503080519 | 39 | 191 | 0.0 | 2.0 | 0.00 | 0.00 | 0.00 | 97 | 1012.4 |
| 20260503072517 | 39 | 58 | 2.0 | 6.0 | 0.00 | 0.00 | 0.00 | 97 | 1012.6 |
| 20260503071519 | 39 | 40 | 5.0 | 10.0 | 0.00 | 0.00 | 0.00 | 97 | 1012.9 |
| 20260503071016 | 39 | 126 | 2.0 | 10.0 | 0.00 | 0.00 | 0.00 | 97 | 1012.9 |
| 20260503070517 | 39 | 64 | 1.0 | 4.0 | 0.00 | 0.00 | 0.00 | 97 | 1013.2 |
| 20260503055011 | 41 | 235 | 1.0 | 5.0 | 0.00 | 0.00 | 0.00 | 97 | 1012.3 |
| 20260503054517 | 40 | 291 | 0.0 | 5.0 | 0.00 | 0.00 | 0.00 | 97 | 1012.4 |
| 20260503054010 | 40 | 305 | 1.0 | 4.0 | 0.00 | 0.00 | 0.00 | 97 | 1012.8 |
| 20260503053511 | 39 | 76 | 1.0 | 2.0 | 0.00 | 0.00 | 0.00 | 97 | 1012.9 |
| 20260503053019 | 39 | 76 | 1.0 | 2.0 | 0.00 | 0.00 | 0.00 | 97 | 1012.9 |
| 20260503052510 | 39 | 76 | 0.0 | 5.0 | 0.00 | 0.00 | 0.00 | 97 | 1013.1 |
| 20260503051512 | 40 | 49 | 3.0 | 14.0 | 0.00 | 0.00 | 0.00 | 97 | 1013.1 |
| 20260503051010 | 40 | 55 | 6.0 | 14.0 | 0.00 | 0.00 | 0.00 | 97 | 1013.2 |
| 20260503050512 | 43 | 38 | 2.0 | 7.0 | 0.00 | 0.00 | 0.00 | 97 | 1012.9 |
| 20260503050009 | 44 | 247 | 0.0 | 5.0 | 0.00 | 0.00 | 0.00 | 97 | 1013.0 |
| 20260503045511 | 44 | 256 | 2.0 | 5.0 | 0.00 | 0.00 | 0.00 | 97 | 1012.7 |
| 20260503045010 | 44 | 266 | 2.0 | 5.0 | 0.00 | 0.00 | 0.00 | 97 | 1012.7 |
| 20260503044510 | 43 | 282 | 2.0 | 3.0 | 0.00 | 0.00 | 0.00 | 97 | 1012.6 |